| time (UTC) | temp C | wind direction | speed KPH | gust KPH | rain 1hr cm | rain 24hr cm | rain mn cm | humidity % | barometer mb |
| 20260505072854 | 2 | 185 | 14.5 | 37.0 | 0.00 | 0.00 | 0.00 | 65 | 960.0 |
| 20260505072354 | 2 | 184 | 12.9 | 38.6 | 0.00 | 0.00 | 0.00 | 64 | 959.6 |
| 20260505071824 | 3 | 159 | 11.3 | 45.1 | 0.00 | 0.00 | 0.00 | 65 | 960.0 |
| 20260505071324 | 4 | 121 | 9.7 | 45.1 | 0.00 | 0.00 | 0.00 | 64 | 959.6 |
| 20260505070754 | 3 | 131 | 9.7 | 27.4 | 0.00 | 0.00 | 0.00 | 68 | 960.0 |
| 20260505070254 | 2 | 90 | 11.3 | 33.8 | 0.00 | 0.00 | 0.00 | 70 | 959.6 |
| 20260505065754 | 2 | 73 | 11.3 | 33.8 | 0.00 | 0.00 | 0.00 | 68 | 959.4 |
| 20260505065254 | 1 | 122 | 11.3 | 33.8 | 0.00 | 0.00 | 0.00 | 70 | 959.3 |
| 20260505064754 | 1 | 102 | 11.3 | 33.8 | 0.00 | 0.00 | 0.00 | 71 | 959.3 |
| 20260505064254 | 1 | 93 | 11.3 | 33.8 | 0.00 | 0.00 | 0.00 | 69 | 959.3 |
| 20260505063754 | 2 | 138 | 11.3 | 41.8 | 0.00 | 0.00 | 0.00 | 72 | 959.2 |
| 20260505063224 | 1 | 164 | 11.3 | 41.8 | 0.00 | 0.00 | 0.00 | 72 | 959.2 |
| 20260505062724 | 2 | 172 | 11.3 | 32.2 | 0.00 | 0.00 | 0.00 | 73 | 959.1 |
| 20260505062154 | 1 | 52 | 11.3 | 30.6 | 0.00 | 0.00 | 0.00 | 73 | 959.0 |
| 20260505061624 | 1 | 91 | 11.3 | 30.6 | 0.00 | 0.00 | 0.00 | 74 | 959.1 |
| 20260505061054 | 1 | 110 | 12.9 | 37.0 | 0.00 | 0.00 | 0.00 | 74 | 959.1 |
| 20260505060554 | 1 | 154 | 12.9 | 37.0 | 0.00 | 0.00 | 0.00 | 73 | 959.0 |
| 20260505060024 | 2 | 226 | 11.3 | 37.0 | 0.00 | 0.00 | 0.00 | 72 | 959.1 |
| 20260505055524 | 2 | 185 | 11.3 | 30.6 | 0.00 | 0.00 | 0.00 | 71 | 959.1 |
| 20260505055024 | 3 | 117 | 9.7 | 27.4 | 0.00 | 0.00 | 0.00 | 72 | 959.1 |
| 20260505054454 | 2 | 171 | 9.7 | 30.6 | 0.00 | 0.00 | 0.00 | 73 | 959.0 |
| 20260505053954 | 2 | 86 | 11.3 | 30.6 | 0.00 | 0.00 | 0.00 | 74 | 959.1 |
| 20260505053454 | 1 | 186 | 11.3 | 29.0 | 0.00 | 0.00 | 0.00 | 75 | 959.0 |
| 20260505052924 | 2 | 68 | 9.7 | 33.8 | 0.00 | 0.00 | 0.00 | 73 | 959.0 |
| 20260505052424 | 2 | 74 | 9.7 | 33.8 | 0.00 | 0.00 | 0.00 | 75 | 959.0 |
| 20260505051854 | 2 | 138 | 11.3 | 35.4 | 0.00 | 0.00 | 0.00 | 74 | 959.0 |
| 20260505051354 | 1 | 127 | 11.3 | 35.4 | 0.00 | 0.00 | 0.00 | 76 | 959.0 |
| 20260505050854 | 1 | 13 | 9.7 | 29.0 | 0.00 | 0.00 | 0.00 | 74 | 958.6 |
| 20260505050353 | 2 | 131 | 9.7 | 30.6 | 0.00 | 0.00 | 0.00 | 72 | 959.0 |
| 20260505041753 | 1 | 184 | 8.0 | 20.9 | 0.00 | 0.00 | 0.00 | 78 | 958.3 |
| 20260505041253 | 0 | 177 | 6.4 | 20.9 | 0.00 | 0.00 | 0.00 | 79 | 958.3 |
| 20260505040753 | 0 | 274 | 6.4 | 20.9 | 0.00 | 0.00 | 0.00 | 80 | 958.2 |
| 20260505040253 | 0 | 115 | 6.4 | 25.7 | 0.00 | 0.00 | 0.00 | 80 | 958.2 |
| 20260505035723 | 1 | 104 | 6.4 | 25.7 | 0.00 | 0.00 | 0.00 | 77 | 958.0 |
| 20260505035223 | 1 | 64 | 6.4 | 24.1 | 0.00 | 0.00 | 0.00 | 77 | 958.1 |
| 20260505034723 | 0 | 36 | 6.4 | 24.1 | 0.00 | 0.00 | 0.00 | 80 | 958.1 |
| 20260505034153 | 0 | 19 | 4.8 | 19.3 | 0.00 | 0.00 | 0.00 | 81 | 958.1 |
| 20260505033653 | 0 | 182 | 4.8 | 17.7 | 0.00 | 0.00 | 0.00 | 80 | 958.0 |
| 20260505033153 | 0 | 127 | 4.8 | 14.5 | 0.00 | 0.00 | 0.00 | 81 | 958.0 |
| 20260505032653 | 0 | 341 | 4.8 | 14.5 | 0.00 | 0.00 | 0.00 | 80 | 958.0 |
| 20260505032153 | 0 | 297 | 4.8 | 19.3 | 0.00 | 0.00 | 0.00 | 79 | 958.0 |
| 20260505031653 | 0 | 111 | 4.8 | 19.3 | 0.00 | 0.00 | 0.00 | 84 | 958.0 |
| 20260505031153 | 0 | 238 | 4.8 | 17.7 | 0.00 | 0.00 | 0.00 | 86 | 958.0 |
| 20260505030653 | 0 | 51 | 6.4 | 17.7 | 0.00 | 0.00 | 0.00 | 86 | 958.0 |
| 20260505030123 | 0 | 167 | 4.8 | 17.7 | 0.00 | 0.00 | 0.00 | 85 | 957.6 |
| 20260505025623 | -1 | 199 | 4.8 | 14.5 | 0.00 | 0.00 | 0.00 | 87 | 957.6 |
| 20260505025123 | -1 | 32 | 4.8 | 16.1 | 0.00 | 0.00 | 0.00 | 87 | 957.6 |
| 20260505024623 | -1 | 98 | 4.8 | 16.1 | 0.00 | 0.00 | 0.00 | 87 | 957.6 |
| 20260505024123 | -1 | 157 | 4.8 | 14.5 | 0.00 | 0.00 | 0.00 | 87 | 957.5 |
| 20260505023553 | -1 | 95 | 4.8 | 20.9 | 0.00 | 0.00 | 0.00 | 87 | 957.5 |
| 20260505023053 | -1 | 202 | 4.8 | 20.9 | 0.00 | 0.00 | 0.00 | 86 | 957.5 |
| 20260505022553 | 0 | 156 | 6.4 | 17.7 | 0.00 | 0.00 | 0.00 | 86 | 957.5 |
| 20260505022053 | 0 | 121 | 6.4 | 20.9 | 0.00 | 0.00 | 0.00 | 85 | 957.4 |
| 20260505021553 | 0 | 256 | 8.0 | 24.1 | 0.00 | 0.00 | 0.00 | 84 | 957.3 |
| 20260505021053 | 0 | 161 | 8.0 | 24.1 | 0.00 | 0.00 | 0.00 | 84 | 957.2 |
| 20260505020553 | 0 | 191 | 8.0 | 24.1 | 0.00 | 0.00 | 0.00 | 84 | 957.3 |
| 20260505020053 | 0 | 187 | 8.0 | 20.9 | 0.00 | 0.00 | 0.00 | 83 | 957.2 |
| 20260505015553 | 0 | 186 | 8.0 | 24.1 | 0.00 | 0.00 | 0.00 | 82 | 957.2 |
| 20260505015052 | 0 | 82 | 8.0 | 24.1 | 0.00 | 0.00 | 0.00 | 82 | 957.1 |
| 20260505014552 | 0 | 184 | 8.0 | 24.1 | 0.00 | 0.00 | 0.00 | 82 | 957.3 |
| 20260505014052 | 0 | 194 | 6.4 | 24.1 | 0.00 | 0.00 | 0.00 | 81 | 957.2 |
| 20260505013552 | 0 | 47 | 6.4 | 22.5 | 0.00 | 0.00 | 0.00 | 81 | 957.1 |
| 20260505013022 | 0 | 152 | 6.4 | 22.5 | 0.00 | 0.00 | 0.00 | 82 | 957.2 |
| 20260505012522 | 0 | 222 | 8.0 | 27.4 | 0.00 | 0.00 | 0.00 | 82 | 957.0 |
| 20260505012022 | 0 | 154 | 8.0 | 27.4 | 0.00 | 0.00 | 0.00 | 82 | 957.0 |
| 20260505011452 | 0 | 93 | 9.7 | 24.1 | 0.00 | 0.00 | 0.00 | 82 | 957.0 |
| 20260505010952 | 0 | 147 | 9.7 | 24.1 | 0.00 | 0.00 | 0.00 | 82 | 957.0 |
| 20260505010452 | 0 | 151 | 9.7 | 25.7 | 0.00 | 0.00 | 0.00 | 82 | 956.6 |
| 20260505005952 | 0 | 127 | 8.0 | 25.7 | 0.00 | 0.00 | 0.00 | 82 | 956.6 |
| 20260505005422 | 0 | 196 | 9.7 | 25.7 | 0.00 | 0.00 | 0.00 | 82 | 956.6 |
| 20260505004852 | 0 | 139 | 9.7 | 25.7 | 0.00 | 0.00 | 0.00 | 82 | 956.5 |
| 20260505004352 | 0 | 146 | 9.7 | 27.4 | 0.00 | 0.00 | 0.00 | 82 | 956.6 |
| 20260505003852 | 0 | 183 | 9.7 | 27.4 | 0.00 | 0.00 | 0.00 | 82 | 956.5 |
| 20260505003352 | 0 | 143 | 8.0 | 24.1 | 0.00 | 0.00 | 0.00 | 82 | 956.4 |
| 20260505002852 | 0 | 128 | 9.7 | 25.7 | 0.00 | 0.00 | 0.00 | 82 | 956.3 |
| 20260505002352 | 0 | 102 | 9.7 | 33.8 | 0.00 | 0.00 | 0.00 | 82 | 956.3 |
| 20260505001852 | 0 | 195 | 9.7 | 33.8 | 0.00 | 0.00 | 0.00 | 82 | 956.2 |
| 20260505001322 | 0 | 219 | 8.0 | 27.4 | 0.00 | 0.00 | 0.00 | 82 | 956.2 |
| 20260505000822 | 0 | 33 | 8.0 | 27.4 | 0.00 | 0.00 | 0.00 | 82 | 956.2 |
| 20260505000322 | 0 | 249 | 9.7 | 27.4 | 0.00 | 0.00 | 0.00 | 82 | 956.1 |
| 20260504235822 | 0 | 151 | 9.7 | 25.7 | 0.00 | 0.00 | 0.00 | 82 | 956.2 |
| 20260504235252 | 0 | 100 | 8.0 | 24.1 | 0.00 | 0.00 | 0.00 | 83 | 956.1 |
| 20260504234722 | 0 | 174 | 9.7 | 24.1 | 0.00 | 0.00 | 0.00 | 82 | 956.1 |
| 20260504234222 | 0 | 84 | 9.7 | 30.6 | 0.00 | 0.00 | 0.00 | 83 | 956.0 |
| 20260504233722 | 0 | 90 | 9.7 | 30.6 | 0.00 | 0.00 | 0.00 | 83 | 956.0 |
| 20260504233222 | 0 | 137 | 8.0 | 27.4 | 0.00 | 0.00 | 0.00 | 83 | 956.0 |
| 20260504232722 | 0 | 119 | 8.0 | 29.0 | 0.00 | 0.00 | 0.00 | 83 | 956.0 |
| 20260504232222 | 0 | 196 | 8.0 | 29.0 | 0.00 | 0.00 | 0.00 | 83 | 956.0 |
| 20260504231722 | 0 | 133 | 8.0 | 27.4 | 0.00 | 0.00 | 0.00 | 83 | 956.0 |
| 20260504231152 | 0 | 97 | 8.0 | 27.4 | 0.00 | 0.00 | 0.00 | 84 | 956.0 |
| 20260504230652 | 0 | 112 | 8.0 | 27.4 | 0.00 | 0.00 | 0.00 | 84 | 956.0 |
| 20260504230152 | 0 | 156 | 8.0 | 24.1 | 0.00 | 0.00 | 0.00 | 84 | 956.0 |
| 20260504225652 | 0 | 101 | 8.0 | 29.0 | 0.00 | 0.00 | 0.00 | 84 | 956.0 |
| 20260504225122 | 0 | 122 | 8.0 | 29.0 | 0.00 | 0.00 | 0.00 | 83 | 956.0 |
| 20260504224622 | 0 | 171 | 8.0 | 29.0 | 0.00 | 0.00 | 0.00 | 82 | 956.0 |
| 20260504224122 | 0 | 144 | 8.0 | 27.4 | 0.00 | 0.00 | 0.00 | 82 | 956.0 |
| 20260504223622 | 0 | 91 | 8.0 | 30.6 | 0.00 | 0.00 | 0.00 | 81 | 956.0 |
| 20260504223052 | 0 | 53 | 8.0 | 30.6 | 0.00 | 0.00 | 0.00 | 81 | 956.0 |
| 20260504222522 | 0 | 209 | 6.4 | 27.4 | 0.00 | 0.00 | 0.00 | 80 | 956.0 |
| 20260504222022 | 0 | 2 | 6.4 | 27.4 | 0.00 | 0.00 | 0.00 | 79 | 956.0 |
| 20260504221522 | 0 | 127 | 6.4 | 22.5 | 0.00 | 0.00 | 0.00 | 78 | 956.0 |
| 20260504220952 | 0 | 91 | 8.0 | 22.5 | 0.00 | 0.00 | 0.00 | 78 | 956.0 |
| 20260504220452 | 0 | 118 | 8.0 | 22.5 | 0.00 | 0.00 | 0.00 | 77 | 955.6 |
| 20260504215952 | 0 | 119 | 8.0 | 30.6 | 0.00 | 0.00 | 0.00 | 77 | 955.6 |
| 20260504215452 | 0 | 133 | 8.0 | 30.6 | 0.00 | 0.00 | 0.00 | 76 | 956.0 |
| 20260504214952 | 0 | 39 | 8.0 | 30.6 | 0.00 | 0.00 | 0.00 | 77 | 955.6 |
| 20260504214452 | 0 | 15 | 8.0 | 29.0 | 0.00 | 0.00 | 0.00 | 76 | 955.6 |
| 20260504213951 | 0 | 5 | 9.7 | 29.0 | 0.00 | 0.00 | 0.00 | 75 | 955.6 |
| 20260504213451 | 0 | 155 | 8.0 | 27.4 | 0.00 | 0.00 | 0.00 | 74 | 955.5 |
| 20260504212951 | 1 | 171 | 6.4 | 22.5 | 0.00 | 0.00 | 0.00 | 74 | 956.0 |
| 20260504212421 | 0 | 349 | 4.8 | 20.9 | 0.00 | 0.00 | 0.00 | 75 | 956.0 |
| 20260504211921 | 0 | 46 | 4.8 | 19.3 | 0.00 | 0.00 | 0.00 | 75 | 956.0 |
| 20260504211421 | 0 | 67 | 4.8 | 19.3 | 0.00 | 0.00 | 0.00 | 74 | 956.0 |
| 20260504210851 | 0 | 91 | 4.8 | 19.3 | 0.00 | 0.00 | 0.00 | 73 | 956.0 |
| 20260504210351 | 0 | 37 | 4.8 | 20.9 | 0.00 | 0.00 | 0.00 | 72 | 956.0 |
| 20260504205851 | 0 | 59 | 6.4 | 20.9 | 0.00 | 0.00 | 0.00 | 71 | 956.0 |
| 20260504205351 | 0 | 102 | 4.8 | 24.1 | 0.00 | 0.00 | 0.00 | 70 | 956.0 |
| 20260504204821 | 1 | 114 | 6.4 | 24.1 | 0.00 | 0.00 | 0.00 | 70 | 956.0 |
| 20260504204321 | 1 | 183 | 4.8 | 17.7 | 0.00 | 0.00 | 0.00 | 70 | 956.0 |
| 20260504203821 | 1 | 136 | 4.8 | 17.7 | 0.00 | 0.00 | 0.00 | 71 | 956.0 |
| 20260504203321 | 1 | 132 | 4.8 | 17.7 | 0.00 | 0.00 | 0.00 | 72 | 956.0 |
| 20260504202751 | 1 | 114 | 4.8 | 17.7 | 0.00 | 0.00 | 0.00 | 71 | 956.0 |
| 20260504202251 | 1 | 109 | 4.8 | 17.7 | 0.00 | 0.00 | 0.00 | 72 | 956.0 |
| 20260504201751 | 1 | 81 | 4.8 | 17.7 | 0.00 | 0.00 | 0.00 | 72 | 956.0 |
| 20260504201251 | 1 | 93 | 4.8 | 16.1 | 0.00 | 0.00 | 0.00 | 72 | 956.0 |
| 20260504200751 | 1 | 81 | 4.8 | 17.7 | 0.00 | 0.00 | 0.00 | 72 | 956.0 |
| 20260504200221 | 1 | 117 | 6.4 | 20.9 | 0.00 | 0.00 | 0.00 | 72 | 956.1 |
| 20260504195721 | 1 | 92 | 8.0 | 29.0 | 0.00 | 0.00 | 0.00 | 71 | 956.1 |
| 20260504195221 | 1 | 149 | 8.0 | 38.6 | 0.00 | 0.00 | 0.00 | 71 | 956.0 |
| 20260504194721 | 1 | 145 | 8.0 | 38.6 | 0.00 | 0.00 | 0.00 | 70 | 956.0 |
| 20260504194151 | 1 | 102 | 6.4 | 22.5 | 0.00 | 0.00 | 0.00 | 70 | 956.0 |
| 20260504193651 | 1 | 132 | 4.8 | 22.5 | 0.00 | 0.00 | 0.00 | 71 | 956.0 |
| 20260504193151 | 1 | 60 | 4.8 | 19.3 | 0.00 | 0.00 | 0.00 | 71 | 956.0 |
| 20260504192621 | 1 | 71 | 6.4 | 22.5 | 0.00 | 0.00 | 0.00 | 71 | 956.0 |
| 20260504192121 | 2 | 21 | 6.4 | 22.5 | 0.00 | 0.00 | 0.00 | 70 | 956.1 |
| 20260504191621 | 2 | 106 | 6.4 | 22.5 | 0.00 | 0.00 | 0.00 | 69 | 956.1 |
| 20260504191051 | 2 | 354 | 4.8 | 14.5 | 0.00 | 0.00 | 0.00 | 70 | 956.1 |
| 20260504190551 | 2 | 83 | 4.8 | 19.3 | 0.00 | 0.00 | 0.00 | 71 | 956.2 |
| 20260504190051 | 2 | 5 | 4.8 | 19.3 | 0.00 | 0.00 | 0.00 | 71 | 956.3 |
| 20260504185551 | 2 | 111 | 4.8 | 17.7 | 0.00 | 0.00 | 0.00 | 70 | 956.1 |
| 20260504185051 | 2 | 116 | 4.8 | 17.7 | 0.00 | 0.00 | 0.00 | 69 | 956.2 |
| 20260504184551 | 2 | 122 | 6.4 | 22.5 | 0.00 | 0.00 | 0.00 | 68 | 956.2 |
| 20260504184051 | 2 | 116 | 8.0 | 22.5 | 0.00 | 0.00 | 0.00 | 67 | 956.1 |
| 20260504183550 | 2 | 111 | 8.0 | 22.5 | 0.00 | 0.00 | 0.00 | 68 | 956.1 |
| 20260504183050 | 2 | 87 | 6.4 | 19.3 | 0.00 | 0.00 | 0.00 | 67 | 956.1 |
| 20260504182550 | 2 | 21 | 6.4 | 19.3 | 0.00 | 0.00 | 0.00 | 66 | 956.1 |
| 20260504182021 | 3 | 82 | 8.0 | 25.7 | 0.00 | 0.00 | 0.00 | 62 | 956.1 |
| 20260504181520 | 3 | 91 | 8.0 | 27.4 | 0.00 | 0.00 | 0.00 | 60 | 956.1 |
| 20260504180950 | 3 | 130 | 8.0 | 27.4 | 0.00 | 0.00 | 0.00 | 59 | 956.1 |
| 20260504180450 | 3 | 154 | 9.7 | 30.6 | 0.00 | 0.00 | 0.00 | 59 | 956.1 |
| 20260504175950 | 3 | 97 | 9.7 | 30.6 | 0.00 | 0.00 | 0.00 | 61 | 956.3 |
| 20260504175450 | 3 | 108 | 11.3 | 30.6 | 0.00 | 0.00 | 0.00 | 62 | 956.1 |
| 20260504174950 | 3 | 96 | 11.3 | 41.8 | 0.00 | 0.00 | 0.00 | 63 | 956.1 |
| 20260504174450 | 3 | 79 | 9.7 | 41.8 | 0.00 | 0.00 | 0.00 | 63 | 956.0 |
| 20260504173950 | 3 | 62 | 9.7 | 41.8 | 0.00 | 0.00 | 0.00 | 58 | 956.0 |
| 20260504173450 | 3 | 160 | 8.0 | 33.8 | 0.00 | 0.00 | 0.00 | 56 | 956.0 |
| 20260504172950 | 4 | 111 | 9.7 | 29.0 | 0.00 | 0.00 | 0.00 | 56 | 956.0 |
| 20260504172450 | 4 | 128 | 9.7 | 29.0 | 0.00 | 0.00 | 0.00 | 56 | 956.0 |
| 20260504171920 | 4 | 88 | 9.7 | 32.2 | 0.00 | 0.00 | 0.00 | 56 | 956.0 |
| 20260504171420 | 4 | 135 | 9.7 | 32.2 | 0.00 | 0.00 | 0.00 | 55 | 956.0 |
| 20260504170920 | 4 | 63 | 8.0 | 27.4 | 0.00 | 0.00 | 0.00 | 54 | 956.0 |
| 20260504170420 | 4 | 63 | 9.7 | 35.4 | 0.00 | 0.00 | 0.00 | 54 | 956.0 |
| 20260504160250 | 5 | 66 | 8.0 | 24.1 | 0.00 | 0.00 | 0.00 | 51 | 956.0 |
| 20260504151119 | 6 | 125 | 12.9 | 43.5 | 0.00 | 0.00 | 0.00 | 52 | 956.0 |
| 20260504150619 | 6 | 109 | 12.9 | 43.5 | 0.00 | 0.00 | 0.00 | 51 | 956.0 |
| 20260504140849 | 6 | 98 | 8.0 | 33.8 | 0.00 | 0.00 | 0.00 | 55 | 956.0 |
| 20260504140319 | 5 | 135 | 8.0 | 33.8 | 0.00 | 0.00 | 0.00 | 56 | 956.0 |
| 20260504130749 | 6 | 80 | 6.4 | 16.1 | 0.00 | 0.00 | 0.00 | 57 | 956.4 |
| 20260504130249 | 7 | 357 | 6.4 | 17.7 | 0.00 | 0.00 | 0.00 | 54 | 956.4 |
| 20260504120248 | 5 | 164 | 12.9 | 48.3 | 0.00 | 0.00 | 0.00 | 53 | 956.2 |
| 20260504110718 | 6 | 25 | 8.0 | 33.8 | 0.00 | 0.00 | 0.00 | 50 | 956.0 |
| 20260504110218 | 6 | 69 | 8.0 | 33.8 | 0.00 | 0.00 | 0.00 | 51 | 956.0 |
| 20260504100517 | 7 | 150 | 9.7 | 30.6 | 0.00 | 0.00 | 0.00 | 60 | 956.1 |
| 20260504081717 | 10 | 162 | 6.4 | 20.9 | 0.00 | 0.00 | 0.00 | 47 | 955.4 |
| 20260504081217 | 11 | 97 | 4.8 | 20.9 | 0.00 | 0.00 | 0.00 | 46 | 955.7 |
| 20260504080717 | 11 | 46 | 4.8 | 16.1 | 0.00 | 0.00 | 0.00 | 46 | 955.8 |
| 20260504080217 | 12 | 80 | 3.2 | 14.5 | 0.00 | 0.00 | 0.00 | 48 | 955.8 |